Weather in Dolní Bousov

Czech Republic     50°26′12″N   15°07′29″E
temp.,
°C
wind,
m/s
gust,
m/s
humid.,
%
clouds,
%
prec.,
mm/h
press.,
hPa
HPBL,
m
24 february, wed
wed2401:00+4ese11800 0.0 103622
04:00+4ese12820 0.0 103522
07:00+3ese12830 0.0 103622
10:00+8ese12680 0.0 1035150
13:00+12sse23560 0.0 1034351
16:00+12sse12640 0.0 103394
19:00+8ene12730 0.0 103322
22:00+7ese12760 0.0 103222
25 february, thu
thu2501:00+6ese22780 0.0 103222
04:00+5e12820 0.0 103122
07:00+4ese12850 0.0 103122
10:00+9se24720 0.0 1030249
13:00+12sse23610 0.0 1029410
16:00+12sse22660 0.0 1028360
19:00+8e12810 0.0 102922
22:00+7ene11830 0.0 102922
26 february, fri
fri2601:00+6e11840 0.0 103022
04:00+5ese01860 0.0 102922
07:00+4ese118923 0.0 102922
10:00+8s008088 0.0 1029183
13:00+10w237094 0.0 1028515
16:00+10nnw4679100 0.0 1028505
19:00+7nnw4988100 0.0 1029453
22:00+5nnw498497 0.0 1031448
27 february, sat
sat2701:00+3nw379268 0.0 1032182
04:00+1nw36930 0.0 1032178
07:00+2nw478828 0.0 1033568
10:00+2nw4685100 0.0 1034606
13:00+3nnw4683100 0.0 1035630
16:00+3nnw4780100 0.0 1033683
19:00+2n478194 0.0 1035495
22:000n228823 0.0 103627
28 february, sun
sun2801:000n118811 0.0 103723
04:000n11870 0.0 103621
07:00−1n11870 0.0 103621
10:00+3wnw11700 0.0 1036508
13:00+6se11560 0.0 1035765
16:00+6ene01550 0.0 1033594
19:00+2n11720 0.0 103422
22:00+1ne11770 0.0 103522